| time (UTC) | temp F | wind direction | speed MPH | gust MPH | rain 1hr in | rain 24hr in | rain mn in | humidity % | barometer mb |
| 20260503034311 | 38 | 33 | 0.0 | 2.0 | 0.00 | 0.00 | 0.00 | 80 | 1012.0 |
| 20260503033809 | 38 | 84 | 2.0 | 2.0 | 0.00 | 0.00 | 0.00 | 78 | 1012.0 |
| 20260503033306 | 38 | 49 | 0.0 | 2.0 | 0.00 | 0.00 | 0.00 | 79 | 1012.0 |
| 20260503032804 | 38 | 61 | 2.0 | 2.0 | 0.00 | 0.00 | 0.00 | 78 | 1012.2 |
| 20260503032304 | 38 | 40 | 1.0 | 2.0 | 0.00 | 0.00 | 0.00 | 78 | 1012.0 |
| 20260503031759 | 38 | 53 | 1.0 | 4.0 | 0.00 | 0.00 | 0.00 | 76 | 1012.2 |
| 20260503031257 | 38 | 30 | 1.0 | 2.0 | 0.00 | 0.00 | 0.00 | 77 | 1012.0 |
| 20260503030753 | 39 | 59 | 2.0 | 3.0 | 0.00 | 0.00 | 0.00 | 75 | 1012.3 |
| 20260503030250 | 39 | 33 | 2.0 | 2.0 | 0.00 | 0.00 | 0.00 | 74 | 1012.1 |
| 20260503025747 | 39 | 22 | 0.0 | 3.0 | 0.00 | 0.00 | 0.00 | 75 | 1012.1 |
| 20260503025244 | 39 | 23 | 2.0 | 2.0 | 0.00 | 0.00 | 0.00 | 74 | 1012.3 |
| 20260503024741 | 39 | 10 | 1.0 | 2.0 | 0.00 | 0.00 | 0.00 | 75 | 1011.9 |
| 20260503024238 | 39 | 357 | 0.0 | 1.0 | 0.00 | 0.00 | 0.00 | 75 | 1012.0 |
| 20260503023735 | 39 | 15 | 1.0 | 2.0 | 0.00 | 0.00 | 0.00 | 75 | 1012.2 |
| 20260503023232 | 40 | 45 | 1.0 | 3.0 | 0.00 | 0.00 | 0.00 | 72 | 1012.0 |
| 20260503022728 | 40 | 38 | 2.0 | 3.0 | 0.00 | 0.00 | 0.00 | 72 | 1012.2 |
| 20260503022228 | 40 | 35 | 3.0 | 3.0 | 0.00 | 0.00 | 0.00 | 69 | 1012.1 |
| 20260503021725 | 40 | 51 | 3.0 | 3.0 | 0.00 | 0.00 | 0.00 | 69 | 1012.2 |
| 20260503021221 | 40 | 35 | 3.0 | 3.0 | 0.00 | 0.00 | 0.00 | 68 | 1012.2 |
| 20260503020719 | 40 | 44 | 2.0 | 3.0 | 0.00 | 0.00 | 0.00 | 70 | 1012.4 |
| 20260503020216 | 40 | 89 | 1.0 | 3.0 | 0.00 | 0.00 | 0.00 | 70 | 1012.4 |
| 20260503015713 | 41 | 36 | 3.0 | 3.0 | 0.00 | 0.00 | 0.00 | 69 | 1012.2 |
| 20260503015210 | 41 | 33 | 2.0 | 4.0 | 0.00 | 0.00 | 0.00 | 68 | 1012.3 |
| 20260503014705 | 41 | 18 | 1.0 | 2.0 | 0.00 | 0.00 | 0.00 | 72 | 1012.4 |
| 20260503014203 | 41 | 49 | 0.0 | 2.0 | 0.00 | 0.00 | 0.00 | 72 | 1012.4 |
| 20260503013700 | 41 | 17 | 4.0 | 4.0 | 0.00 | 0.00 | 0.00 | 68 | 1012.2 |
| 20260503013158 | 41 | 44 | 1.0 | 2.0 | 0.00 | 0.00 | 0.00 | 70 | 1012.1 |
| 20260503012655 | 41 | 45 | 2.0 | 3.0 | 0.00 | 0.00 | 0.00 | 70 | 1012.1 |
| 20260503012152 | 41 | 32 | 3.0 | 3.0 | 0.00 | 0.00 | 0.00 | 68 | 1012.0 |
| 20260503011648 | 42 | 28 | 2.0 | 3.0 | 0.00 | 0.00 | 0.00 | 67 | 1011.9 |
| 20260503011145 | 42 | 31 | 3.0 | 4.0 | 0.00 | 0.00 | 0.00 | 65 | 1012.1 |
| 20260503010641 | 42 | 31 | 3.0 | 4.0 | 0.00 | 0.00 | 0.00 | 65 | 1012.0 |
| 20260503010139 | 42 | 36 | 2.0 | 3.0 | 0.00 | 0.00 | 0.00 | 65 | 1012.0 |
| 20260503005636 | 42 | 33 | 3.0 | 3.0 | 0.00 | 0.00 | 0.00 | 65 | 1011.8 |
| 20260503005133 | 42 | 28 | 1.0 | 4.0 | 0.00 | 0.00 | 0.00 | 64 | 1012.1 |
| 20260503004629 | 42 | 317 | 1.0 | 2.0 | 0.00 | 0.00 | 0.00 | 65 | 1011.7 |
| 20260503004128 | 42 | 11 | 0.0 | 4.0 | 0.00 | 0.00 | 0.00 | 63 | 1011.6 |
| 20260503003624 | 42 | 31 | 3.0 | 3.0 | 0.00 | 0.00 | 0.00 | 61 | 1011.6 |
| 20260503003121 | 42 | 81 | 2.0 | 2.0 | 0.00 | 0.00 | 0.00 | 61 | 1011.7 |
| 20260503002618 | 42 | 43 | 2.0 | 3.0 | 0.00 | 0.00 | 0.00 | 62 | 1011.6 |
| 20260503002115 | 43 | 29 | 3.0 | 3.0 | 0.00 | 0.00 | 0.00 | 61 | 1011.9 |
| 20260503001611 | 43 | 42 | 3.0 | 4.0 | 0.00 | 0.00 | 0.00 | 59 | 1011.9 |
| 20260503001109 | 43 | 45 | 1.0 | 4.0 | 0.00 | 0.00 | 0.00 | 60 | 1011.7 |
| 20260503000606 | 43 | 39 | 2.0 | 3.0 | 0.00 | 0.00 | 0.00 | 58 | 1011.6 |
| 20260503000103 | 43 | 40 | 3.0 | 4.0 | 0.00 | 0.00 | 0.00 | 58 | 1011.7 |
| 20260502235559 | 44 | 355 | 3.0 | 4.0 | 0.00 | 0.00 | 0.00 | 58 | 1011.6 |
| 20260502235057 | 44 | 38 | 3.0 | 4.0 | 0.00 | 0.00 | 0.00 | 55 | 1011.5 |
| 20260502234553 | 44 | 11 | 4.0 | 6.0 | 0.00 | 0.00 | 0.00 | 55 | 1011.5 |
| 20260502234051 | 44 | 28 | 3.0 | 3.0 | 0.00 | 0.00 | 0.00 | 55 | 1011.4 |
| 20260502233551 | 44 | 32 | 3.0 | 3.0 | 0.00 | 0.00 | 0.00 | 56 | 1011.5 |
| 20260502233049 | 45 | 23 | 4.0 | 4.0 | 0.00 | 0.00 | 0.00 | 55 | 1011.2 |
| 20260502232544 | 45 | 54 | 3.0 | 5.0 | 0.00 | 0.00 | 0.00 | 56 | 1011.3 |
| 20260502232042 | 45 | 59 | 3.0 | 3.0 | 0.00 | 0.00 | 0.00 | 55 | 1011.2 |
| 20260502231539 | 45 | 31 | 2.0 | 4.0 | 0.00 | 0.00 | 0.00 | 53 | 1011.1 |
| 20260502231037 | 45 | 12 | 4.0 | 4.0 | 0.00 | 0.00 | 0.00 | 55 | 1011.2 |
| 20260502230535 | 45 | 20 | 4.0 | 4.0 | 0.00 | 0.00 | 0.00 | 54 | 1011.1 |
| 20260502230033 | 45 | 52 | 3.0 | 4.0 | 0.00 | 0.00 | 0.00 | 56 | 1011.2 |
| 20260502225528 | 45 | 32 | 2.0 | 3.0 | 0.00 | 0.00 | 0.00 | 56 | 1011.2 |
| 20260502225026 | 45 | 20 | 2.0 | 3.0 | 0.00 | 0.00 | 0.00 | 57 | 1010.9 |
| 20260502224522 | 45 | 29 | 1.0 | 2.0 | 0.00 | 0.00 | 0.00 | 62 | 1011.2 |
| 20260502224019 | 45 | 337 | 1.0 | 2.0 | 0.00 | 0.00 | 0.00 | 63 | 1010.7 |
| 20260502223517 | 45 | 79 | 2.0 | 3.0 | 0.00 | 0.00 | 0.00 | 60 | 1010.9 |
| 20260502223015 | 45 | 89 | 5.0 | 5.0 | 0.00 | 0.00 | 0.00 | 60 | 1010.7 |
| 20260502222512 | 45 | 67 | 2.0 | 2.0 | 0.00 | 0.00 | 0.00 | 59 | 1010.8 |
| 20260502222008 | 45 | 87 | 3.0 | 3.0 | 0.00 | 0.00 | 0.00 | 59 | 1011.2 |
| 20260502221503 | 45 | 339 | 0.0 | 2.0 | 0.00 | 0.00 | 0.00 | 57 | 1011.2 |
| 20260502221001 | 45 | 79 | 1.0 | 2.0 | 0.00 | 0.00 | 0.00 | 59 | 1011.3 |
| 20260502220456 | 45 | 82 | 2.0 | 2.0 | 0.00 | 0.00 | 0.00 | 60 | 1010.9 |
| 20260502215953 | 45 | 78 | 2.0 | 3.0 | 0.00 | 0.00 | 0.00 | 62 | 1011.1 |
| 20260502215451 | 45 | 52 | 2.0 | 2.0 | 0.00 | 0.00 | 0.00 | 62 | 1011.2 |
| 20260502214948 | 45 | 44 | 2.0 | 3.0 | 0.00 | 0.00 | 0.00 | 61 | 1010.9 |
| 20260502214444 | 44 | 27 | 2.0 | 4.0 | 0.00 | 0.00 | 0.00 | 63 | 1010.9 |
| 20260502213942 | 44 | 71 | 2.0 | 3.0 | 0.00 | 0.00 | 0.00 | 67 | 1010.9 |
| 20260502213438 | 45 | 36 | 3.0 | 4.0 | 0.00 | 0.00 | 0.00 | 63 | 1011.1 |
| 20260502212937 | 45 | 17 | 4.0 | 5.0 | 0.00 | 0.00 | 0.00 | 62 | 1010.9 |
| 20260502212435 | 45 | 12 | 4.0 | 5.0 | 0.00 | 0.00 | 0.00 | 57 | 1010.9 |
| 20260502211932 | 46 | 37 | 3.0 | 4.0 | 0.00 | 0.00 | 0.00 | 54 | 1010.7 |
| 20260502211428 | 46 | 24 | 2.0 | 4.0 | 0.00 | 0.00 | 0.00 | 53 | 1010.6 |
| 20260502210926 | 46 | 26 | 3.0 | 4.0 | 0.00 | 0.00 | 0.00 | 56 | 1010.9 |
| 20260502210422 | 46 | 291 | 1.0 | 9.0 | 0.00 | 0.00 | 0.00 | 54 | 1010.5 |
| 20260502205919 | 46 | 279 | 6.0 | 10.0 | 0.00 | 0.00 | 0.00 | 52 | 1010.5 |
| 20260502205415 | 46 | 319 | 3.0 | 5.0 | 0.00 | 0.00 | 0.00 | 52 | 1010.5 |
| 20260502204913 | 47 | 32 | 4.0 | 4.0 | 0.00 | 0.00 | 0.00 | 52 | 1010.7 |
| 20260502204410 | 47 | 280 | 1.0 | 3.0 | 0.00 | 0.00 | 0.00 | 53 | 1010.5 |
| 20260502203908 | 47 | 106 | 0.0 | 3.0 | 0.00 | 0.00 | 0.00 | 51 | 1010.7 |
| 20260502203405 | 47 | 14 | 2.0 | 4.0 | 0.00 | 0.00 | 0.00 | 50 | 1010.7 |
| 20260502202900 | 47 | 29 | 2.0 | 4.0 | 0.00 | 0.00 | 0.00 | 51 | 1010.7 |
| 20260502202358 | 47 | 48 | 4.0 | 4.0 | 0.00 | 0.00 | 0.00 | 51 | 1010.8 |
| 20260502201855 | 47 | 31 | 3.0 | 3.0 | 0.00 | 0.00 | 0.00 | 53 | 1010.7 |
| 20260502201351 | 47 | 20 | 3.0 | 4.0 | 0.00 | 0.00 | 0.00 | 50 | 1010.9 |
| 20260502200848 | 47 | 92 | 2.0 | 3.0 | 0.00 | 0.00 | 0.00 | 51 | 1010.7 |
| 20260502200343 | 47 | 48 | 2.0 | 4.0 | 0.00 | 0.00 | 0.00 | 49 | 1010.8 |
| 20260502195842 | 47 | 60 | 4.0 | 5.0 | 0.00 | 0.00 | 0.00 | 52 | 1010.9 |
| 20260502195338 | 48 | 77 | 5.0 | 5.0 | 0.00 | 0.00 | 0.00 | 49 | 1010.8 |
| 20260502194835 | 48 | 21 | 3.0 | 5.0 | 0.00 | 0.00 | 0.00 | 51 | 1010.9 |
| 20260502194332 | 48 | 78 | 2.0 | 4.0 | 0.00 | 0.00 | 0.00 | 48 | 1011.1 |
| 20260502193828 | 48 | 6 | 3.0 | 5.0 | 0.00 | 0.00 | 0.00 | 47 | 1011.3 |
| 20260502193325 | 47 | 67 | 2.0 | 3.0 | 0.00 | 0.00 | 0.00 | 49 | 1011.4 |
| 20260502192821 | 47 | 65 | 6.0 | 7.0 | 0.00 | 0.00 | 0.00 | 49 | 1011.3 |
| 20260502192318 | 48 | 339 | 3.0 | 4.0 | 0.00 | 0.00 | 0.00 | 49 | 1011.3 |
| 20260502191815 | 48 | 333 | 3.0 | 3.0 | 0.00 | 0.00 | 0.00 | 48 | 1011.2 |
| 20260502191313 | 48 | 151 | 3.0 | 4.0 | 0.00 | 0.00 | 0.00 | 49 | 1011.3 |
| 20260502190810 | 48 | 38 | 2.0 | 3.0 | 0.00 | 0.00 | 0.00 | 44 | 1011.4 |
| 20260502190307 | 48 | 101 | 0.0 | 4.0 | 0.00 | 0.00 | 0.00 | 45 | 1011.3 |
| 20260502185802 | 48 | 103 | 3.0 | 4.0 | 0.00 | 0.00 | 0.00 | 47 | 1011.3 |
| 20260502185258 | 49 | 96 | 2.0 | 4.0 | 0.00 | 0.00 | 0.00 | 48 | 1011.4 |
| 20260502184755 | 49 | 66 | 2.0 | 2.0 | 0.00 | 0.00 | 0.00 | 44 | 1011.5 |
| 20260502184251 | 48 | 109 | 1.0 | 3.0 | 0.00 | 0.00 | 0.00 | 45 | 1011.7 |
| 20260502183748 | 47 | 74 | 5.0 | 6.0 | 0.00 | 0.00 | 0.00 | 45 | 1011.6 |
| 20260502183244 | 47 | 278 | 2.0 | 6.0 | 0.00 | 0.00 | 0.00 | 45 | 1011.6 |
| 20260502182739 | 48 | 31 | 1.0 | 4.0 | 0.00 | 0.00 | 0.00 | 45 | 1011.7 |
| 20260502182235 | 48 | 356 | 3.0 | 4.0 | 0.00 | 0.00 | 0.00 | 46 | 1011.8 |
| 20260502181732 | 48 | 12 | 1.0 | 9.0 | 0.00 | 0.00 | 0.00 | 46 | 1011.6 |
| 20260502181231 | 48 | 75 | 5.0 | 5.0 | 0.00 | 0.00 | 0.00 | 48 | 1011.7 |
| 20260502180728 | 48 | 352 | 2.0 | 6.0 | 0.00 | 0.00 | 0.00 | 44 | 1011.3 |
| 20260502180226 | 48 | 44 | 4.0 | 7.0 | 0.00 | 0.00 | 0.00 | 45 | 1011.6 |
| 20260502170150 | 48 | 44 | 3.0 | 4.0 | 0.00 | 0.00 | 0.00 | 50 | 1011.7 |
| 20260502164136 | 50 | 113 | 3.0 | 3.0 | 0.00 | 0.00 | 0.00 | 49 | 1011.7 |
| 20260502163632 | 48 | 326 | 2.0 | 4.0 | 0.00 | 0.00 | 0.00 | 50 | 1011.6 |
| 20260502163129 | 49 | 31 | 4.0 | 5.0 | 0.00 | 0.00 | 0.00 | 48 | 1011.9 |
| 20260502162626 | 50 | 73 | 5.0 | 7.0 | 0.00 | 0.00 | 0.00 | 44 | 1011.7 |
| 20260502162123 | 48 | 12 | 2.0 | 6.0 | 0.00 | 0.00 | 0.00 | 45 | 1011.9 |
| 20260502161620 | 48 | 86 | 4.0 | 5.0 | 0.00 | 0.00 | 0.00 | 45 | 1011.8 |
| 20260502161117 | 48 | 70 | 7.0 | 8.0 | 0.00 | 0.00 | 0.00 | 47 | 1011.7 |
| 20260502160615 | 50 | 340 | 3.0 | 4.0 | 0.00 | 0.00 | 0.00 | 47 | 1011.7 |
| 20260502160113 | 50 | 88 | 0.0 | 9.0 | 0.00 | 0.00 | 0.00 | 41 | 1011.9 |
| 20260502152028 | 48 | 41 | 4.0 | 8.0 | 0.00 | 0.00 | 0.00 | 44 | 1012.2 |
| 20260502151524 | 49 | 18 | 6.0 | 7.0 | 0.00 | 0.00 | 0.00 | 43 | 1012.1 |
| 20260502151022 | 51 | 26 | 4.0 | 6.0 | 0.00 | 0.00 | 0.00 | 48 | 1012.2 |
| 20260502150519 | 49 | 6 | 5.0 | 6.0 | 0.00 | 0.00 | 0.00 | 46 | 1011.8 |
| 20260502130404 | 44 | 1 | 2.0 | 9.0 | 0.00 | 0.00 | 0.00 | 68 | 1012.5 |
| 20260502123347 | 43 | 61 | 5.0 | 7.0 | 0.00 | 0.00 | 0.00 | 78 | 1012.2 |
| 20260502122844 | 42 | 36 | 2.0 | 6.0 | 0.00 | 0.00 | 0.00 | 76 | 1012.4 |
| 20260502122339 | 42 | 29 | 5.0 | 6.0 | 0.00 | 0.00 | 0.00 | 82 | 1012.5 |
| 20260502121838 | 41 | 38 | 3.0 | 6.0 | 0.00 | 0.00 | 0.00 | 84 | 1012.5 |
| 20260502121335 | 42 | 34 | 3.0 | 6.0 | 0.00 | 0.00 | 0.00 | 84 | 1012.2 |
| 20260502120832 | 41 | 24 | 3.0 | 5.0 | 0.00 | 0.00 | 0.00 | 85 | 1012.6 |
| 20260502120328 | 40 | 36 | 2.0 | 4.0 | 0.00 | 0.00 | 0.00 | 86 | 1012.4 |
| 20260502115826 | 41 | 286 | 2.0 | 5.0 | 0.00 | 0.00 | 0.00 | 86 | 1012.4 |
| 20260502115323 | 41 | 355 | 2.0 | 4.0 | 0.00 | 0.00 | 0.00 | 88 | 1012.2 |
| 20260502114820 | 42 | 313 | 1.0 | 5.0 | 0.00 | 0.00 | 0.00 | 89 | 1012.4 |
| 20260502114316 | 41 | 305 | 2.0 | 4.0 | 0.00 | 0.00 | 0.00 | 90 | 1012.2 |
| 20260502113813 | 41 | 11 | 2.0 | 5.0 | 0.00 | 0.00 | 0.00 | 91 | 1012.4 |
| 20260502113311 | 41 | 358 | 1.0 | 3.0 | 0.00 | 0.00 | 0.00 | 98 | 1012.2 |
| 20260502112809 | 41 | 95 | 4.0 | 4.0 | 0.00 | 0.00 | 0.00 | 99 | 1012.5 |
| 20260502112306 | 41 | 99 | 0.0 | 3.0 | 0.00 | 0.00 | 0.00 | 99 | 1012.4 |
| 20260502111803 | 40 | 86 | 2.0 | 2.0 | 0.00 | 0.00 | 0.00 | 99 | 1012.2 |
| 20260502111301 | 38 | 94 | 1.0 | 2.0 | 0.00 | 0.00 | 0.00 | 99 | 1012.2 |
| 20260502110758 | 38 | 71 | 2.0 | 2.0 | 0.00 | 0.00 | 0.00 | 99 | 1012.4 |
| 20260502110256 | 37 | 41 | 2.0 | 3.0 | 0.00 | 0.00 | 0.00 | 99 | 1012.3 |
| 20260502105754 | 38 | 57 | 2.0 | 3.0 | 0.00 | 0.00 | 0.00 | 99 | 1012.1 |
| 20260502105250 | 38 | 41 | 2.0 | 2.0 | 0.00 | 0.00 | 0.00 | 99 | 1012.1 |
| 20260502104748 | 38 | 8 | 0.0 | 1.0 | 0.00 | 0.00 | 0.00 | 99 | 1012.0 |
| 20260502104245 | 37 | 50 | 1.0 | 2.0 | 0.00 | 0.00 | 0.00 | 99 | 1012.0 |
| 20260502103743 | 38 | 31 | 2.0 | 2.0 | 0.00 | 0.00 | 0.00 | 99 | 1012.0 |
| 20260502103240 | 38 | 72 | 2.0 | 3.0 | 0.00 | 0.00 | 0.00 | 99 | 1011.9 |
| 20260502102737 | 38 | 42 | 2.0 | 2.0 | 0.00 | 0.00 | 0.00 | 99 | 1011.7 |
| 20260502102233 | 38 | 83 | 2.0 | 3.0 | 0.00 | 0.00 | 0.00 | 99 | 1011.7 |
| 20260502101731 | 38 | 37 | 2.0 | 3.0 | 0.00 | 0.00 | 0.00 | 99 | 1011.5 |
| 20260502101229 | 39 | 70 | 3.0 | 3.0 | 0.00 | 0.00 | 0.00 | 99 | 1011.6 |
| 20260502100727 | 38 | 44 | 2.0 | 3.0 | 0.00 | 0.00 | 0.00 | 99 | 1011.7 |
| 20260502100225 | 38 | 49 | 3.0 | 5.0 | 0.00 | 0.00 | 0.00 | 99 | 1011.7 |
| 20260502091159 | 38 | 72 | 2.0 | 2.0 | 0.00 | 0.00 | 0.00 | 99 | 1011.1 |
| 20260502090657 | 38 | 60 | 1.0 | 2.0 | 0.00 | 0.00 | 0.00 | 99 | 1011.1 |
| 20260502090154 | 39 | 46 | 1.0 | 2.0 | 0.00 | 0.00 | 0.00 | 99 | 1010.9 |
| 20260502071055 | 39 | 25 | 0.0 | 2.0 | 0.00 | 0.00 | 0.00 | 99 | 1010.6 |
| 20260502070553 | 39 | 55 | 2.0 | 2.0 | 0.00 | 0.00 | 0.00 | 99 | 1010.6 |
| 20260502070050 | 39 | 8 | 1.0 | 2.0 | 0.00 | 0.00 | 0.00 | 99 | 1010.4 |
| 20260502065549 | 39 | 74 | 1.0 | 2.0 | 0.00 | 0.00 | 0.00 | 99 | 1010.7 |
| 20260502065046 | 39 | 38 | 1.0 | 2.0 | 0.00 | 0.00 | 0.00 | 99 | 1010.6 |
| 20260502064545 | 39 | 85 | 2.0 | 2.0 | 0.00 | 0.00 | 0.00 | 99 | 1010.6 |
| 20260502064041 | 39 | 85 | 1.0 | 2.0 | 0.00 | 0.00 | 0.00 | 99 | 1010.5 |
| 20260502063539 | 40 | 45 | 2.0 | 3.0 | 0.00 | 0.00 | 0.00 | 99 | 1010.4 |
| 20260502063037 | 40 | 38 | 2.0 | 2.0 | 0.00 | 0.00 | 0.00 | 99 | 1010.6 |
| 20260502062534 | 40 | 39 | 2.0 | 3.0 | 0.00 | 0.00 | 0.00 | 99 | 1010.6 |
| 20260502062032 | 40 | 51 | 2.0 | 2.0 | 0.00 | 0.00 | 0.00 | 98 | 1010.6 |
| 20260502061530 | 40 | 53 | 2.0 | 3.0 | 0.00 | 0.00 | 0.00 | 98 | 1010.6 |
| 20260502061026 | 40 | 36 | 3.0 | 3.0 | 0.00 | 0.00 | 0.00 | 98 | 1010.8 |
| 20260502060521 | 40 | 29 | 2.0 | 3.0 | 0.00 | 0.00 | 0.00 | 98 | 1010.9 |
| 20260502060018 | 40 | 13 | 3.0 | 4.0 | 0.00 | 0.00 | 0.00 | 98 | 1010.6 |
| 20260502055516 | 40 | 18 | 3.0 | 4.0 | 0.00 | 0.00 | 0.00 | 98 | 1010.5 |
| 20260502055015 | 40 | 48 | 2.0 | 4.0 | 0.00 | 0.00 | 0.00 | 98 | 1010.8 |
| 20260502054513 | 40 | 73 | 2.0 | 3.0 | 0.00 | 0.00 | 0.00 | 99 | 1010.7 |
| 20260502054009 | 40 | 111 | 0.0 | 4.0 | 0.00 | 0.00 | 0.00 | 99 | 1010.5 |
| 20260502053506 | 40 | 73 | 3.0 | 3.0 | 0.00 | 0.00 | 0.00 | 99 | 1010.5 |
| 20260502053005 | 40 | 78 | 4.0 | 4.0 | 0.00 | 0.00 | 0.00 | 99 | 1010.1 |
| 20260502052502 | 41 | 67 | 3.0 | 3.0 | 0.00 | 0.00 | 0.00 | 99 | 1010.6 |
| 20260502052000 | 41 | 28 | 4.0 | 4.0 | 0.00 | 0.00 | 0.00 | 99 | 1010.5 |
| 20260502051458 | 41 | 23 | 4.0 | 5.0 | 0.00 | 0.00 | 0.00 | 99 | 1010.3 |
| 20260502050955 | 41 | 18 | 3.0 | 5.0 | 0.00 | 0.00 | 0.00 | 99 | 1010.4 |
| 20260502050451 | 41 | 25 | 3.0 | 4.0 | 0.00 | 0.00 | 0.00 | 99 | 1010.6 |
| 20260502045949 | 41 | 32 | 2.0 | 3.0 | 0.00 | 0.00 | 0.00 | 99 | 1010.6 |
| 20260502045445 | 42 | 48 | 2.0 | 4.0 | 0.00 | 0.00 | 0.00 | 99 | 1010.5 |
| 20260502044942 | 42 | 40 | 3.0 | 3.0 | 0.00 | 0.00 | 0.00 | 99 | 1010.7 |
| 20260502044438 | 42 | 61 | 2.0 | 3.0 | 0.00 | 0.00 | 0.00 | 99 | 1010.6 |
| 20260502043935 | 42 | 60 | 2.0 | 3.0 | 0.00 | 0.00 | 0.00 | 99 | 1010.7 |
| 20260502043433 | 42 | 75 | 2.0 | 3.0 | 0.00 | 0.00 | 0.00 | 99 | 1010.6 |
| 20260502042932 | 42 | 74 | 2.0 | 2.0 | 0.00 | 0.00 | 0.00 | 99 | 1010.6 |
| 20260502042430 | 42 | 79 | 1.0 | 2.0 | 0.00 | 0.00 | 0.00 | 99 | 1010.5 |
| 20260502041927 | 42 | 68 | 2.0 | 2.0 | 0.00 | 0.00 | 0.00 | 99 | 1010.6 |
| 20260502041425 | 42 | 60 | 2.0 | 3.0 | 0.00 | 0.00 | 0.00 | 99 | 1010.3 |
| 20260502040921 | 42 | 66 | 2.0 | 3.0 | 0.00 | 0.00 | 0.00 | 99 | 1010.4 |
| 20260502040418 | 43 | 38 | 2.0 | 3.0 | 0.00 | 0.00 | 0.00 | 99 | 1010.4 |
| 20260502035914 | 43 | 41 | 2.0 | 3.0 | 0.00 | 0.13 | 0.13 | 99 | 1010.4 |
| 20260502035411 | 43 | 58 | 2.0 | 3.0 | 0.00 | 0.13 | 0.13 | 99 | 1010.3 |
| 20260502034908 | 43 | 76 | 3.0 | 3.0 | 0.00 | 0.13 | 0.13 | 99 | 1010.2 |